FDB868 OEDF-OMDB

Flight info

Callsign FDB868
Flight time 1h 43m
Altitude 25000
Route RYDAN DCT ITULU DCT MIDGU DCT EGVAN Q730 KUNRA DCT TAPRA/N0412F240 DCT VAXAS DCT NALNU Q568 IMPED
Aircraft B738/M-SDGIJ1LRWY/SB1

Departure

Time 2026-05-07 10:55
Airport King Fahd International Airport (OEDF)

Arrival

Time 2026-05-07 12:38
Airport Dubai International Airport (OMDB)
Time Latitude Longitude Altitude Speed Heading
2026-05-07 10:23 26.47090 49.79387 72 ft 0 kts 64°
2026-05-07 10:45 26.47081 49.79368 71 ft 2 kts 64°
2026-05-07 10:45 26.47075 49.79354 71 ft 2 kts 64°
2026-05-07 10:45 26.47069 49.79338 71 ft 2 kts 86°
2026-05-07 10:45 26.47070 49.79321 70 ft 2 kts 105°
2026-05-07 10:46 26.47077 49.79306 70 ft 2 kts 126°
2026-05-07 10:46 26.47087 49.79294 69 ft 1 kts 147°
2026-05-07 10:46 26.47093 49.79290 69 ft 1 kts 157°
2026-05-07 10:46 26.47096 49.79289 68 ft 0 kts 154°
2026-05-07 10:49 26.47081 49.79297 69 ft 5 kts 157°
2026-05-07 10:49 26.47029 49.79277 69 ft 10 kts 248°
2026-05-07 10:50 26.47006 49.79188 64 ft 13 kts 255°
2026-05-07 10:50 26.46981 49.79094 61 ft 12 kts 240°
2026-05-07 10:50 26.46906 49.79067 63 ft 12 kts 170°
2026-05-07 10:50 26.46812 49.79092 64 ft 15 kts 166°
2026-05-07 10:51 26.46702 49.79127 65 ft 15 kts 164°
2026-05-07 10:51 26.46602 49.79159 65 ft 14 kts 164°
2026-05-07 10:51 26.46506 49.79190 66 ft 15 kts 164°
2026-05-07 10:51 26.46388 49.79226 66 ft 19 kts 165°
2026-05-07 10:52 26.46240 49.79271 65 ft 24 kts 164°
2026-05-07 10:52 26.46074 49.79324 63 ft 24 kts 164°
2026-05-07 10:52 26.45907 49.79378 61 ft 24 kts 163°
2026-05-07 10:52 26.45740 49.79427 59 ft 24 kts 166°
2026-05-07 10:53 26.45577 49.79477 58 ft 24 kts 164°
2026-05-07 10:53 26.45468 49.79458 57 ft 15 kts 240°
2026-05-07 10:53 26.45437 49.79349 58 ft 12 kts 254°
2026-05-07 10:53 26.45416 49.79258 61 ft 11 kts 264°
2026-05-07 10:54 26.45464 49.79187 61 ft 14 kts 339°
2026-05-07 10:54 26.45703 49.79115 59 ft 65 kts 345°
2026-05-07 10:54 26.46328 49.78921 63 ft 119 kts 344°
2026-05-07 10:54 26.47286 49.78624 61 ft 164 kts 346°
2026-05-07 10:55 26.48460 49.78280 387 ft 176 kts 345°
2026-05-07 10:55 26.49592 49.77911 1154 ft 166 kts 344°
2026-05-07 10:55 26.50723 49.77533 1482 ft 177 kts 345°
2026-05-07 10:55 26.51952 49.77143 1770 ft 190 kts 346°
2026-05-07 10:56 26.53272 49.76736 2059 ft 203 kts 346°
2026-05-07 10:56 26.54679 49.76300 2402 ft 213 kts 345°
2026-05-07 10:56 26.56101 49.75856 2848 ft 217 kts 346°
2026-05-07 10:56 26.57590 49.75408 3312 ft 220 kts 351°
2026-05-07 10:57 26.59095 49.75491 3741 ft 222 kts 21°
2026-05-07 10:57 26.60368 49.76459 4227 ft 224 kts 48°
2026-05-07 10:57 26.61205 49.77922 4702 ft 226 kts 69°
2026-05-07 10:57 26.61392 49.79648 5136 ft 232 kts 99°
2026-05-07 10:58 26.60731 49.81347 5401 ft 248 kts 128°
2026-05-07 10:58 26.59361 49.82584 5671 ft 262 kts 149°
2026-05-07 10:58 26.57700 49.83556 5962 ft 275 kts 153°
2026-05-07 10:58 26.55959 49.84507 6431 ft 281 kts 153°
2026-05-07 10:59 26.54182 49.85469 6898 ft 286 kts 153°
2026-05-07 10:59 26.52377 49.86456 7129 ft 296 kts 153°
2026-05-07 10:59 26.50548 49.87465 7819 ft 292 kts 154°
2026-05-07 10:59 26.48628 49.88187 8377 ft 294 kts 173°
2026-05-07 11:00 26.46588 49.88308 9010 ft 293 kts 181°
2026-05-07 11:00 26.44553 49.88178 9547 ft 295 kts 192°
2026-05-07 11:00 26.42615 49.87474 10164 ft 295 kts 205°
2026-05-07 11:00 26.40717 49.86479 10547 ft 307 kts 206°
2026-05-07 11:01 26.38726 49.85456 10881 ft 321 kts 204°
2026-05-07 11:01 26.36640 49.84483 11160 ft 335 kts 202°
2026-05-07 11:01 26.34418 49.83520 11466 ft 348 kts 201°
2026-05-07 11:01 26.32093 49.82549 11854 ft 359 kts 200°
2026-05-07 11:02 26.29757 49.81589 12358 ft 364 kts 200°
2026-05-07 11:02 26.27372 49.80610 13011 ft 366 kts 200°
2026-05-07 11:02 26.24962 49.79619 13683 ft 368 kts 200°
2026-05-07 11:02 26.22552 49.78626 14318 ft 372 kts 200°
2026-05-07 11:03 26.20126 49.77625 15002 ft 373 kts 200°
2026-05-07 11:03 26.17688 49.76618 15627 ft 376 kts 200°
2026-05-07 11:03 26.15233 49.75604 15836 ft 380 kts 200°
2026-05-07 11:03 26.12760 49.74583 15833 ft 376 kts 200°
2026-05-07 11:04 26.10273 49.73621 15844 ft 377 kts 197°
2026-05-07 11:04 26.07747 49.72889 15837 ft 378 kts 191°
2026-05-07 11:04 26.05146 49.72463 15833 ft 377 kts 186°
2026-05-07 11:04 26.02498 49.72222 15886 ft 383 kts 184°
2026-05-07 11:05 25.99830 49.72068 16520 ft 384 kts 183°
2026-05-07 11:05 25.97172 49.71936 17236 ft 384 kts 183°
2026-05-07 11:05 25.94513 49.71800 17822 ft 386 kts 183°
2026-05-07 11:05 25.91809 49.71646 18382 ft 390 kts 184°
2026-05-07 11:06 25.89079 49.71479 18921 ft 393 kts 184°
2026-05-07 11:06 25.86360 49.71304 19460 ft 397 kts 185°
2026-05-07 11:06 25.83600 49.71122 19951 ft 400 kts 185°
2026-05-07 11:06 25.80804 49.70935 20476 ft 403 kts 185°
2026-05-07 11:07 25.77977 49.70769 20961 ft 406 kts 184°
2026-05-07 11:07 25.75151 49.70816 21470 ft 410 kts 178°
2026-05-07 11:07 25.72322 49.71328 21896 ft 416 kts 168°
2026-05-07 11:07 25.69569 49.72382 22301 ft 423 kts 159°
2026-05-07 11:08 25.66885 49.73812 22755 ft 427 kts 155°
2026-05-07 11:08 25.64261 49.75383 23197 ft 430 kts 154°
2026-05-07 11:08 25.61647 49.77032 23641 ft 433 kts 153°
2026-05-07 11:08 25.59046 49.78705 24049 ft 436 kts 153°
2026-05-07 11:09 25.56409 49.80401 24293 ft 437 kts 153°
2026-05-07 11:09 25.53812 49.82066 24529 ft 434 kts 154°
2026-05-07 11:09 25.51187 49.83736 24759 ft 433 kts 154°
2026-05-07 11:09 25.48551 49.85401 24851 ft 436 kts 154°
2026-05-07 11:10 25.45897 49.87067 25008 ft 444 kts 154°
2026-05-07 11:10 25.43213 49.88743 25304 ft 448 kts 154°
2026-05-07 11:10 25.40473 49.90450 25714 ft 450 kts 155°
2026-05-07 11:10 25.37775 49.92131 26231 ft 448 kts 155°
2026-05-07 11:11 25.35067 49.93816 26461 ft 446 kts 155°
2026-05-07 11:11 25.32346 49.95510 26700 ft 441 kts 155°
2026-05-07 11:11 25.29691 49.97160 26832 ft 443 kts 155°
2026-05-07 11:11 25.26994 49.98832 26835 ft 442 kts 155°
2026-05-07 11:12 25.24336 50.00481 26840 ft 440 kts 155°
2026-05-07 11:12 25.21652 50.02145 26846 ft 441 kts 155°
2026-05-07 11:12 25.18964 50.03810 26847 ft 441 kts 155°
2026-05-07 11:12 25.16316 50.05449 26850 ft 441 kts 155°
2026-05-07 11:13 25.13607 50.07125 26851 ft 440 kts 155°
2026-05-07 11:13 25.10957 50.08764 26852 ft 441 kts 155°
2026-05-07 11:13 25.08278 50.10420 26853 ft 441 kts 155°
2026-05-07 11:13 25.05598 50.12077 26853 ft 441 kts 155°
2026-05-07 11:14 25.02902 50.13741 26856 ft 440 kts 155°
2026-05-07 11:14 25.00237 50.15387 26853 ft 440 kts 155°
2026-05-07 11:14 24.97573 50.17030 26854 ft 441 kts 155°
2026-05-07 11:14 24.94875 50.18695 26855 ft 441 kts 155°
2026-05-07 11:15 24.92209 50.20338 26850 ft 440 kts 155°
2026-05-07 11:15 24.89541 50.21981 26853 ft 441 kts 155°
2026-05-07 11:15 24.86851 50.23637 26853 ft 441 kts 155°
2026-05-07 11:15 24.84180 50.25281 26851 ft 441 kts 155°
2026-05-07 11:16 24.81490 50.26936 26848 ft 441 kts 155°
2026-05-07 11:16 24.78788 50.28596 26848 ft 442 kts 155°
2026-05-07 11:16 24.76127 50.30231 26847 ft 442 kts 155°
2026-05-07 11:16 24.73434 50.31883 26849 ft 443 kts 155°
2026-05-07 11:17 24.70762 50.33522 26847 ft 443 kts 155°
2026-05-07 11:17 24.68072 50.35172 26847 ft 442 kts 155°
2026-05-07 11:17 24.65359 50.36837 26843 ft 443 kts 155°
2026-05-07 11:17 24.62669 50.38486 26843 ft 443 kts 155°
2026-05-07 11:18 24.59997 50.40123 26841 ft 443 kts 155°
2026-05-07 11:18 24.57284 50.41785 26838 ft 442 kts 155°
2026-05-07 11:18 24.54610 50.43422 26836 ft 444 kts 155°
2026-05-07 11:18 24.51921 50.45067 26834 ft 443 kts 155°
2026-05-07 11:19 24.49225 50.46715 26829 ft 443 kts 155°
2026-05-07 11:19 24.46520 50.48366 26829 ft 443 kts 155°
2026-05-07 11:19 24.43827 50.50010 26830 ft 443 kts 155°
2026-05-07 11:19 24.41125 50.51660 26831 ft 444 kts 155°
2026-05-07 11:20 24.38428 50.53306 26829 ft 443 kts 155°
2026-05-07 11:20 24.35749 50.54939 26831 ft 443 kts 155°
2026-05-07 11:20 24.33037 50.56593 26831 ft 444 kts 154°
2026-05-07 11:20 24.30323 50.58247 26828 ft 444 kts 155°
2026-05-07 11:21 24.27621 50.59893 26828 ft 444 kts 154°
2026-05-07 11:21 24.24914 50.61539 26829 ft 445 kts 154°
2026-05-07 11:21 24.22208 50.63186 26826 ft 445 kts 154°
2026-05-07 11:21 24.19531 50.64814 26825 ft 445 kts 155°
2026-05-07 11:22 24.16803 50.66472 26825 ft 445 kts 155°
2026-05-07 11:22 24.14092 50.68119 26823 ft 444 kts 155°
2026-05-07 11:22 24.11395 50.69756 26824 ft 444 kts 155°
2026-05-07 11:22 24.08681 50.71404 26823 ft 444 kts 155°
2026-05-07 11:23 24.05983 50.73041 26818 ft 444 kts 155°
2026-05-07 11:23 24.03297 50.74669 26818 ft 444 kts 155°
2026-05-07 11:23 24.00603 50.76301 26816 ft 445 kts 155°
2026-05-07 11:23 23.97869 50.77956 26813 ft 445 kts 155°
2026-05-07 11:24 23.95180 50.79584 26807 ft 446 kts 154°
2026-05-07 11:24 23.92436 50.81244 26810 ft 446 kts 154°
2026-05-07 11:24 23.89747 50.82870 26809 ft 445 kts 155°
2026-05-07 11:24 23.87016 50.84522 26807 ft 445 kts 154°
2026-05-07 11:25 23.84327 50.86147 26806 ft 445 kts 154°
2026-05-07 11:25 23.81612 50.87786 26796 ft 446 kts 154°
2026-05-07 11:25 23.78869 50.89442 26795 ft 446 kts 154°
2026-05-07 11:25 23.76147 50.91085 26794 ft 446 kts 154°
2026-05-07 11:26 23.73457 50.92706 26790 ft 446 kts 154°
2026-05-07 11:26 23.70721 50.94356 26790 ft 446 kts 154°
2026-05-07 11:26 23.67993 50.95999 26789 ft 446 kts 154°
2026-05-07 11:26 23.65310 50.97615 26788 ft 445 kts 154°
2026-05-07 11:27 23.62589 50.99253 26783 ft 445 kts 154°
2026-05-07 11:27 23.59879 51.00883 26788 ft 447 kts 154°
2026-05-07 11:27 23.57134 51.02534 26785 ft 447 kts 154°
2026-05-07 11:27 23.54442 51.04151 26783 ft 447 kts 154°
2026-05-07 11:28 23.51696 51.05801 26785 ft 448 kts 154°
2026-05-07 11:28 23.48954 51.07447 26785 ft 448 kts 154°
2026-05-07 11:28 23.46220 51.09088 26788 ft 448 kts 154°
2026-05-07 11:28 23.43495 51.10724 26781 ft 447 kts 154°
2026-05-07 11:29 23.40819 51.12368 26780 ft 449 kts 151°
2026-05-07 11:29 23.38275 51.14349 26783 ft 452 kts 142°
2026-05-07 11:29 23.36077 51.16838 26779 ft 456 kts 130°
2026-05-07 11:29 23.34341 51.19747 26782 ft 459 kts 120°
2026-05-07 11:30 23.33019 51.22905 26781 ft 461 kts 112°
2026-05-07 11:30 23.32031 51.26179 26777 ft 462 kts 107°
2026-05-07 11:30 23.31230 51.29582 26777 ft 463 kts 104°
2026-05-07 11:30 23.30554 51.33002 26776 ft 463 kts 102°
2026-05-07 11:31 23.29930 51.36440 26774 ft 463 kts 102°
2026-05-07 11:31 23.29326 51.39843 26776 ft 462 kts 102°
2026-05-07 11:31 23.28714 51.43252 26775 ft 462 kts 102°
2026-05-07 11:31 23.28087 51.46669 26775 ft 462 kts 102°
2026-05-07 11:32 23.26780 51.53538 26776 ft 463 kts 103°
2026-05-07 11:32 23.26119 51.56930 26777 ft 462 kts 103°
2026-05-07 11:32 23.25447 51.60338 26781 ft 462 kts 103°
2026-05-07 11:33 23.24766 51.63768 26781 ft 462 kts 103°
2026-05-07 11:33 23.24085 51.67176 26781 ft 461 kts 103°
2026-05-07 11:33 23.23411 51.70547 26783 ft 460 kts 103°
2026-05-07 11:33 23.22730 51.73938 26784 ft 461 kts 103°
2026-05-07 11:34 23.22043 51.77354 26785 ft 460 kts 103°
2026-05-07 11:34 23.21368 51.80712 26786 ft 460 kts 103°
2026-05-07 11:34 23.20680 51.84127 26788 ft 459 kts 103°
2026-05-07 11:34 23.19996 51.87515 26789 ft 459 kts 103°
2026-05-07 11:35 23.19315 51.90889 26788 ft 459 kts 103°
2026-05-07 11:35 23.18640 51.94227 26786 ft 458 kts 103°
2026-05-07 11:35 23.17949 51.97641 26783 ft 459 kts 103°
2026-05-07 11:35 23.17263 52.01025 26781 ft 459 kts 103°
2026-05-07 11:36 23.16586 52.04366 26781 ft 459 kts 103°
2026-05-07 11:36 23.15899 52.07751 26778 ft 458 kts 103°
2026-05-07 11:36 23.15213 52.11123 26781 ft 459 kts 103°
2026-05-07 11:36 23.14523 52.14514 26780 ft 459 kts 103°
2026-05-07 11:37 23.13838 52.17880 26782 ft 458 kts 103°
2026-05-07 11:37 23.13153 52.21238 26783 ft 458 kts 103°
2026-05-07 11:37 23.12462 52.24623 26786 ft 458 kts 103°
2026-05-07 11:37 23.11783 52.27947 26786 ft 458 kts 103°
2026-05-07 11:38 23.11090 52.31334 26788 ft 457 kts 103°
2026-05-07 11:38 23.10399 52.34706 26788 ft 458 kts 103°
2026-05-07 11:38 23.09709 52.38068 26791 ft 457 kts 103°
2026-05-07 11:38 23.09015 52.41447 26792 ft 457 kts 103°
2026-05-07 11:39 23.08324 52.44805 26793 ft 456 kts 103°
2026-05-07 11:39 23.07637 52.48146 26796 ft 456 kts 103°
2026-05-07 11:39 23.06945 52.51507 26797 ft 456 kts 103°
2026-05-07 11:39 23.06251 52.54870 26799 ft 457 kts 103°
2026-05-07 11:40 23.05565 52.58192 26801 ft 457 kts 103°
2026-05-07 11:40 23.04870 52.61556 26801 ft 457 kts 103°
2026-05-07 11:40 23.04169 52.64942 26805 ft 457 kts 103°
2026-05-07 11:40 23.03480 52.68265 26806 ft 457 kts 104°
2026-05-07 11:41 23.02780 52.71641 26807 ft 457 kts 103°
2026-05-07 11:41 23.02079 52.75014 26807 ft 457 kts 103°
2026-05-07 11:41 23.01381 52.78372 26809 ft 456 kts 104°
2026-05-07 11:41 23.00684 52.81723 26810 ft 457 kts 103°
2026-05-07 11:42 22.99989 52.85058 26811 ft 456 kts 103°
2026-05-07 11:42 22.99291 52.88404 26807 ft 455 kts 103°
2026-05-07 11:42 22.98591 52.91754 26802 ft 455 kts 103°
2026-05-07 11:42 22.97900 52.95063 26798 ft 454 kts 103°
2026-05-07 11:43 22.97195 52.98432 26794 ft 454 kts 103°
2026-05-07 11:43 22.96496 53.01766 26795 ft 454 kts 103°
2026-05-07 11:43 22.95797 53.05100 26795 ft 454 kts 104°
2026-05-07 11:43 22.95099 53.08422 26795 ft 455 kts 104°
2026-05-07 11:44 22.94399 53.11750 26793 ft 455 kts 104°
2026-05-07 11:44 22.93694 53.15098 26793 ft 454 kts 104°
2026-05-07 11:44 22.92994 53.18421 26793 ft 455 kts 104°
2026-05-07 11:44 22.92285 53.21783 26791 ft 456 kts 103°
2026-05-07 11:45 22.91590 53.25076 26790 ft 455 kts 104°
2026-05-07 11:45 22.90879 53.28443 26791 ft 455 kts 104°
2026-05-07 11:45 22.90176 53.31762 26788 ft 455 kts 104°
2026-05-07 11:45 22.89468 53.35106 26788 ft 456 kts 104°
2026-05-07 11:46 22.88753 53.38474 26789 ft 455 kts 104°
2026-05-07 11:46 22.88048 53.41798 26790 ft 455 kts 104°
2026-05-07 11:46 22.87345 53.45104 26791 ft 454 kts 104°
2026-05-07 11:46 22.86641 53.48416 26792 ft 454 kts 104°
2026-05-07 11:47 22.85922 53.51789 26795 ft 454 kts 104°
2026-05-07 11:47 22.85219 53.55087 26798 ft 453 kts 104°
2026-05-07 11:47 22.84510 53.58408 26803 ft 454 kts 104°
2026-05-07 11:47 22.83800 53.61733 26804 ft 454 kts 104°
2026-05-07 11:48 22.83085 53.65074 26807 ft 454 kts 104°
2026-05-07 11:48 22.82374 53.68394 26806 ft 454 kts 104°
2026-05-07 11:48 22.81658 53.71731 26804 ft 454 kts 104°
2026-05-07 11:48 22.80955 53.75006 26803 ft 453 kts 104°
2026-05-07 11:49 22.80241 53.78330 26802 ft 454 kts 104°
2026-05-07 11:49 22.79524 53.81667 26800 ft 454 kts 104°
2026-05-07 11:49 22.78809 53.84985 26797 ft 454 kts 104°
2026-05-07 11:49 22.78092 53.88314 26794 ft 454 kts 104°
2026-05-07 11:50 22.77380 53.91611 26796 ft 454 kts 104°
2026-05-07 11:50 22.76662 53.94938 26799 ft 454 kts 104°
2026-05-07 11:50 22.75943 53.98263 26800 ft 453 kts 104°
2026-05-07 11:50 22.75221 54.01598 26807 ft 453 kts 104°
2026-05-07 11:51 22.74506 54.04897 26807 ft 453 kts 104°
2026-05-07 11:51 22.73791 54.08196 26804 ft 452 kts 104°
2026-05-07 11:51 22.73076 54.11489 26802 ft 452 kts 104°
2026-05-07 11:51 22.72355 54.14807 26804 ft 453 kts 104°
2026-05-07 11:52 22.71629 54.18141 26801 ft 453 kts 104°
2026-05-07 11:52 22.70908 54.21451 26799 ft 452 kts 104°
2026-05-07 11:52 22.70188 54.24755 26797 ft 452 kts 104°
2026-05-07 11:52 22.69461 54.28084 26799 ft 453 kts 104°
2026-05-07 11:53 22.68745 54.31361 26798 ft 452 kts 104°
2026-05-07 11:53 22.68015 54.34695 26799 ft 452 kts 104°
2026-05-07 11:53 22.67300 54.37963 26802 ft 452 kts 104°
2026-05-07 11:53 22.66572 54.41283 26800 ft 453 kts 104°
2026-05-07 11:54 22.65849 54.44577 26802 ft 453 kts 104°
2026-05-07 11:54 22.65121 54.47894 26803 ft 452 kts 104°
2026-05-07 11:54 22.64394 54.51201 26801 ft 452 kts 104°
2026-05-07 11:54 22.63664 54.54517 26799 ft 452 kts 104°
2026-05-07 11:55 22.62940 54.57803 26797 ft 452 kts 104°
2026-05-07 11:55 22.62210 54.61112 26796 ft 452 kts 104°
2026-05-07 11:55 22.61488 54.64384 26794 ft 452 kts 104°
2026-05-07 11:55 22.60756 54.67698 26795 ft 452 kts 104°
2026-05-07 11:56 22.60021 54.71019 26791 ft 452 kts 104°
2026-05-07 11:56 22.59291 54.74314 26790 ft 451 kts 104°
2026-05-07 11:56 22.58570 54.77565 26790 ft 452 kts 104°
2026-05-07 11:56 22.57837 54.80867 26788 ft 451 kts 104°
2026-05-07 11:57 22.57099 54.84190 26791 ft 451 kts 104°
2026-05-07 11:57 22.56377 54.87436 26791 ft 451 kts 104°
2026-05-07 11:57 22.55639 54.90752 26792 ft 450 kts 104°
2026-05-07 11:57 22.54907 54.94036 26793 ft 450 kts 104°
2026-05-07 11:58 22.54178 54.97303 26795 ft 450 kts 104°
2026-05-07 11:58 22.53445 55.00585 26796 ft 452 kts 104°
2026-05-07 11:58 22.52706 55.03893 26795 ft 451 kts 104°
2026-05-07 11:58 22.51971 55.07175 26792 ft 452 kts 104°
2026-05-07 11:59 22.51228 55.10495 26794 ft 453 kts 104°
2026-05-07 11:59 22.50493 55.13770 26787 ft 452 kts 104°
2026-05-07 11:59 22.49754 55.17063 26786 ft 452 kts 104°
2026-05-07 11:59 22.49006 55.20393 26784 ft 452 kts 104°
2026-05-07 12:00 22.48266 55.23685 26782 ft 452 kts 104°
2026-05-07 12:00 22.47525 55.26975 26779 ft 451 kts 104°
2026-05-07 12:00 22.46835 55.30258 26777 ft 451 kts 101°
2026-05-07 12:00 22.46475 55.33608 26779 ft 452 kts 91°
2026-05-07 12:01 22.46707 55.36991 26782 ft 452 kts 79°
2026-05-07 12:01 22.47546 55.40265 26790 ft 452 kts 69°
2026-05-07 12:01 22.48811 55.43364 26792 ft 452 kts 62°
2026-05-07 12:01 22.50340 55.46319 26799 ft 451 kts 58°
2026-05-07 12:02 22.51994 55.49147 26804 ft 451 kts 56°
2026-05-07 12:02 22.53753 55.51988 26799 ft 452 kts 55°
2026-05-07 12:02 22.55524 55.54787 26801 ft 452 kts 54°
2026-05-07 12:02 22.57287 55.57568 26803 ft 452 kts 54°
2026-05-07 12:03 22.59070 55.60397 26800 ft 453 kts 55°
2026-05-07 12:03 22.60840 55.63229 26801 ft 453 kts 55°
2026-05-07 12:03 22.62589 55.66051 26802 ft 453 kts 56°
2026-05-07 12:03 22.64314 55.68850 26805 ft 453 kts 56°
2026-05-07 12:04 22.66057 55.71693 26809 ft 453 kts 56°
2026-05-07 12:04 22.67808 55.74559 26808 ft 453 kts 56°
2026-05-07 12:04 22.69542 55.77404 26809 ft 452 kts 56°
2026-05-07 12:04 22.71261 55.80231 26810 ft 452 kts 56°
2026-05-07 12:05 22.72985 55.83068 26809 ft 453 kts 56°
2026-05-07 12:05 22.74699 55.85892 26811 ft 452 kts 56°
2026-05-07 12:05 22.76432 55.88750 26813 ft 452 kts 56°
2026-05-07 12:05 22.78158 55.91598 26813 ft 453 kts 56°
2026-05-07 12:06 22.79885 55.94450 26812 ft 452 kts 56°
2026-05-07 12:06 22.81599 55.97282 26814 ft 452 kts 56°
2026-05-07 12:06 22.83332 56.00146 26812 ft 452 kts 56°
2026-05-07 12:06 22.85047 56.02982 26812 ft 452 kts 56°
2026-05-07 12:07 22.86760 56.05817 26817 ft 452 kts 56°
2026-05-07 12:07 22.88493 56.08687 26816 ft 452 kts 56°
2026-05-07 12:07 22.90219 56.11546 26818 ft 451 kts 56°
2026-05-07 12:07 22.91920 56.14365 26824 ft 451 kts 56°
2026-05-07 12:08 22.93639 56.17215 26828 ft 452 kts 56°
2026-05-07 12:08 22.95365 56.20078 26828 ft 452 kts 56°
2026-05-07 12:08 22.97079 56.22923 26839 ft 452 kts 56°
2026-05-07 12:08 22.98816 56.25746 26849 ft 452 kts 53°
2026-05-07 12:09 23.00732 56.28426 26841 ft 451 kts 46°
2026-05-07 12:09 23.03085 56.30677 26853 ft 447 kts 32°
2026-05-07 12:09 23.05779 56.32293 26860 ft 444 kts 21°
2026-05-07 12:09 23.08712 56.33400 26861 ft 442 kts 14°
2026-05-07 12:10 23.11667 56.34256 26863 ft 441 kts 12°
2026-05-07 12:10 23.14670 56.35030 26864 ft 441 kts 11°
2026-05-07 12:10 23.17694 56.35766 26865 ft 441 kts 10°
2026-05-07 12:10 23.20675 56.36479 26871 ft 441 kts 10°
2026-05-07 12:11 23.23663 56.37192 26871 ft 441 kts 10°
2026-05-07 12:11 23.26689 56.37920 26876 ft 441 kts 10°
2026-05-07 12:11 23.29685 56.38646 26880 ft 442 kts 11°
2026-05-07 12:11 23.32687 56.39381 26889 ft 442 kts 11°
2026-05-07 12:12 23.35664 56.40116 26892 ft 443 kts 11°
2026-05-07 12:12 23.38690 56.40867 26900 ft 442 kts 11°
2026-05-07 12:12 23.41706 56.41620 26908 ft 442 kts 11°
2026-05-07 12:12 23.44696 56.42366 26917 ft 442 kts 11°
2026-05-07 12:13 23.47714 56.43122 26927 ft 443 kts 11°
2026-05-07 12:13 23.50704 56.43870 26930 ft 442 kts 11°
2026-05-07 12:13 23.53722 56.44627 26937 ft 442 kts 11°
2026-05-07 12:13 23.56675 56.45367 26937 ft 440 kts 11°
2026-05-07 12:14 23.59662 56.46112 26953 ft 440 kts 11°
2026-05-07 12:14 23.62687 56.46863 26956 ft 441 kts 10°
2026-05-07 12:14 23.65661 56.47601 26965 ft 441 kts 10°
2026-05-07 12:14 23.68649 56.48342 26965 ft 441 kts 11°
2026-05-07 12:15 23.71665 56.49090 26974 ft 440 kts 11°
2026-05-07 12:15 23.74635 56.49827 26981 ft 441 kts 11°
2026-05-07 12:15 23.77634 56.50572 26981 ft 441 kts 11°
2026-05-07 12:15 23.80627 56.51317 26968 ft 442 kts 11°
2026-05-07 12:16 23.83635 56.52065 26955 ft 442 kts 11°
2026-05-07 12:16 23.86651 56.52817 26943 ft 442 kts 11°
2026-05-07 12:16 23.89654 56.53566 26920 ft 441 kts 11°
2026-05-07 12:16 23.92660 56.54317 26911 ft 441 kts 11°
2026-05-07 12:17 23.95636 56.55061 26898 ft 441 kts 11°
2026-05-07 12:17 23.98622 56.55808 26878 ft 441 kts 11°
2026-05-07 12:17 24.01639 56.56563 26862 ft 441 kts 11°
2026-05-07 12:17 24.04602 56.57304 26855 ft 441 kts 11°
2026-05-07 12:18 24.07621 56.58060 26837 ft 441 kts 11°
2026-05-07 12:18 24.10609 56.58808 26828 ft 441 kts 11°
2026-05-07 12:18 24.13618 56.59486 26824 ft 441 kts
2026-05-07 12:18 24.16633 56.60000 26556 ft 443 kts
2026-05-07 12:19 24.19712 56.60425 26184 ft 440 kts
2026-05-07 12:19 24.22719 56.60796 25864 ft 437 kts
2026-05-07 12:19 24.25768 56.61160 25547 ft 439 kts
2026-05-07 12:19 24.28816 56.61525 25231 ft 440 kts
2026-05-07 12:20 24.31858 56.61900 24920 ft 440 kts
2026-05-07 12:20 24.34906 56.62280 24601 ft 439 kts
2026-05-07 12:20 24.37927 56.62427 24281 ft 435 kts 356°
2026-05-07 12:20 24.40930 56.62062 23961 ft 431 kts 347°
2026-05-07 12:21 24.43791 56.61091 23766 ft 425 kts 334°
2026-05-07 12:21 24.46331 56.59498 23768 ft 426 kts 323°
2026-05-07 12:21 24.48614 56.57422 23761 ft 419 kts 316°
2026-05-07 12:21 24.50635 56.55246 23760 ft 402 kts 313°
2026-05-07 12:22 24.52557 56.53048 23778 ft 391 kts 312°
2026-05-07 12:22 24.54396 56.50885 23775 ft 395 kts 311°
2026-05-07 12:22 24.56262 56.48669 23668 ft 396 kts 311°
2026-05-07 12:22 24.58139 56.46439 23256 ft 391 kts 312°
2026-05-07 12:23 24.59972 56.44266 22136 ft 395 kts 312°
2026-05-07 12:23 24.61846 56.42049 20900 ft 400 kts 313°
2026-05-07 12:23 24.63715 56.39845 19919 ft 399 kts 313°
2026-05-07 12:23 24.65598 56.37630 19092 ft 396 kts 313°
2026-05-07 12:24 24.67468 56.35431 18301 ft 393 kts 313°
2026-05-07 12:24 24.69306 56.33269 17545 ft 389 kts 313°
2026-05-07 12:24 24.71105 56.31033 16959 ft 386 kts 309°
2026-05-07 12:24 24.72686 56.28678 16366 ft 385 kts 304°
2026-05-07 12:25 24.74104 56.26198 15828 ft 382 kts 301°
2026-05-07 12:25 24.75421 56.23671 15292 ft 380 kts 300°
2026-05-07 12:25 24.76755 56.21182 14776 ft 377 kts 302°
2026-05-07 12:25 24.78146 56.18798 14618 ft 364 kts 303°
2026-05-07 12:26 24.79511 56.16531 14108 ft 356 kts 304°
2026-05-07 12:26 24.80889 56.14246 13404 ft 354 kts 303°
2026-05-07 12:26 24.82220 56.12017 12706 ft 352 kts 303°
2026-05-07 12:26 24.83548 56.09766 12113 ft 346 kts 303°
2026-05-07 12:27 24.84828 56.07575 11513 ft 340 kts 302°
2026-05-07 12:27 24.86087 56.05408 10928 ft 335 kts 302°
2026-05-07 12:27 24.87332 56.03257 10457 ft 325 kts 302°
2026-05-07 12:27 24.88497 56.01242 10322 ft 305 kts 302°
2026-05-07 12:28 24.89605 55.99326 10221 ft 291 kts 302°
2026-05-07 12:28 24.90684 55.97459 9921 ft 288 kts 302°
2026-05-07 12:28 24.91759 55.95598 9502 ft 288 kts 302°
2026-05-07 12:28 24.92830 55.93743 9142 ft 286 kts 302°
2026-05-07 12:29 24.93897 55.91894 8771 ft 284 kts 302°
2026-05-07 12:29 24.94954 55.90065 8422 ft 282 kts 302°
2026-05-07 12:29 24.95993 55.88264 8070 ft 281 kts 302°
2026-05-07 12:29 24.97044 55.86445 7728 ft 279 kts 302°
2026-05-07 12:30 24.98079 55.84650 7361 ft 279 kts 302°
2026-05-07 12:30 24.99116 55.82852 7012 ft 277 kts 302°
2026-05-07 12:30 25.00152 55.81054 6663 ft 276 kts 302°
2026-05-07 12:30 25.01164 55.79298 6298 ft 274 kts 302°
2026-05-07 12:31 25.02188 55.77520 5957 ft 272 kts 302°
2026-05-07 12:31 25.03196 55.75770 5628 ft 270 kts 302°
2026-05-07 12:31 25.04198 55.74029 5326 ft 267 kts 302°
2026-05-07 12:31 25.05174 55.72333 5205 ft 256 kts 302°
2026-05-07 12:32 25.06109 55.70705 5135 ft 244 kts 302°
2026-05-07 12:32 25.06997 55.69160 5054 ft 233 kts 302°
2026-05-07 12:32 25.07841 55.67691 4973 ft 223 kts 302°
2026-05-07 12:32 25.08690 55.66213 4916 ft 230 kts 302°
2026-05-07 12:33 25.10344 55.63226 4742 ft 230 kts 300°
2026-05-07 12:33 25.11171 55.61678 4475 ft 236 kts 301°
2026-05-07 12:33 25.12033 55.60132 4130 ft 238 kts 301°
2026-05-07 12:34 25.12910 55.58581 3817 ft 238 kts 301°
2026-05-07 12:34 25.13785 55.57027 3507 ft 238 kts 301°
2026-05-07 12:34 25.14649 55.55483 3204 ft 236 kts 301°
2026-05-07 12:34 25.15504 55.53954 2904 ft 233 kts 300°
2026-05-07 12:35 25.16335 55.52468 2599 ft 222 kts 300°
2026-05-07 12:35 25.17130 55.51047 2325 ft 212 kts 300°
2026-05-07 12:35 25.17873 55.49717 2054 ft 199 kts 300°
2026-05-07 12:35 25.18569 55.48472 1843 ft 180 kts 300°
2026-05-07 12:36 25.19197 55.47348 1631 ft 161 kts 299°
2026-05-07 12:36 25.19766 55.46328 1377 ft 152 kts 299°
2026-05-07 12:36 25.20316 55.45339 1234 ft 153 kts 298°
2026-05-07 12:36 25.20869 55.44346 1033 ft 151 kts 299°
2026-05-07 12:37 25.21418 55.43375 840 ft 146 kts 300°
2026-05-07 12:37 25.21852 55.42624 709 ft 146 kts 299°
2026-05-07 12:37 25.22370 55.41665 526 ft 145 kts 298°
2026-05-07 12:37 25.22919 55.40717 349 ft 148 kts 300°
2026-05-07 12:38 25.23456 55.39742 166 ft 147 kts 299°
2026-05-07 12:38 25.23963 55.38809 70 ft 125 kts 303°
2026-05-07 12:38 25.24338 55.38137 70 ft 82 kts 301°
2026-05-07 12:38 25.24566 55.37743 70 ft 37 kts 294°
2026-05-07 12:39 25.24608 55.37574 70 ft 17 kts 282°
2026-05-07 12:39 25.24616 55.37488 70 ft 8 kts 274°
2026-05-07 12:39 25.24620 55.37427 70 ft 7 kts 273°
2026-05-07 12:39 25.24622 55.37374 70 ft 6 kts 273°
2026-05-07 12:40 25.24624 55.37327 70 ft 7 kts 272°
2026-05-07 12:40 25.24636 55.37254 70 ft 11 kts 288°
2026-05-07 12:40 25.24686 55.37163 70 ft 16 kts 300°
2026-05-07 12:40 25.24749 55.37040 69 ft 20 kts 301°
2026-05-07 12:41 25.24819 55.36908 69 ft 19 kts 300°
2026-05-07 12:41 25.24862 55.36769 69 ft 20 kts 282°
2026-05-07 12:41 25.24917 55.36625 69 ft 21 kts 300°
2026-05-07 12:41 25.24987 55.36489 69 ft 17 kts 301°
2026-05-07 12:42 25.25052 55.36372 69 ft 18 kts 300°
2026-05-07 12:42 25.25123 55.36247 69 ft 20 kts 302°
2026-05-07 12:42 25.25194 55.36111 69 ft 21 kts 301°
2026-05-07 12:42 25.25272 55.35974 69 ft 20 kts 302°
2026-05-07 12:43 25.25345 55.35847 69 ft 19 kts 301°
2026-05-07 12:43 25.25417 55.35715 69 ft 21 kts 301°
2026-05-07 12:43 25.25498 55.35567 69 ft 22 kts 301°
2026-05-07 12:43 25.25578 55.35424 69 ft 21 kts 302°
2026-05-07 12:44 25.25626 55.35337 69 ft 9 kts 301°
2026-05-07 12:44 25.25660 55.35276 69 ft 3 kts 302°
2026-05-07 12:44 25.25662 55.35273 69 ft 0 kts 301°
2026-05-07 12:45 25.25671 55.35257 69 ft 6 kts 301°
2026-05-07 12:45 25.25704 55.35195 69 ft 12 kts 301°
2026-05-07 12:45 25.25757 55.35099 69 ft 15 kts 301°
2026-05-07 12:45 25.25843 55.35067 69 ft 16 kts 29°
2026-05-07 12:46 25.25952 55.35138 69 ft 20 kts 32°
2026-05-07 12:46 25.26075 55.35218 69 ft 20 kts 30°
2026-05-07 12:46 25.26192 55.35297 69 ft 19 kts 32°
2026-05-07 12:46 25.26299 55.35369 69 ft 14 kts 32°
2026-05-07 12:47 25.26384 55.35426 69 ft 13 kts 32°
2026-05-07 12:47 25.26462 55.35475 69 ft 12 kts 27°
2026-05-07 12:47 25.26531 55.35521 69 ft 9 kts 32°
2026-05-07 12:47 25.26568 55.35546 69 ft 2 kts 31°
2026-05-07 12:48 25.26577 55.35552 69 ft 0 kts 32°